Regional Weather Roundup
Issued by NWS

Home | Current Version | Previous Version | Graphics & Text | Print | Product List | Glossary On
Versions: 1 2 3 4 5 6 7 8 9 10 11 12 13 14 15 16 17 18 19 20 21 22 23 24 25 26 27 28 29 30 31 32 33 34 35 36 37 38 39 40 41 42 43 44 45 46 47 48 49 50
000
ASUS43 KBIS 260710
RWRND

NORTH DAKOTA REGIONAL WEATHER ROUNDUP
NATIONAL WEATHER SERVICE BISMARCK ND
100 AM CST FRI DEC 26 2014

NOTE: "FAIR" INDICATES FEW OR NO CLOUDS BELOW 12,000 FEET WITH NO
SIGNIFICANT WEATHER AND/OR OBSTRUCTIONS TO VISIBILITY.


NDZ001>003-009>011-017-260800-
NORTHWEST NORTH DAKOTA

CITY           SKY/WX    TMP DP  RH WIND       PRES   REMARKS
WILLISTON      CLOUDY    15  10  80 NW7       30.11S WCI   5
MINOT          CLOUDY    11   4  73 W20       30.08R WCI  -7
MINOT AFB      CLOUDY     9   5  85 NW21      30.08R WCI -11
$$

NDZ018>021-031>035-040>046-260800-
SOUTHWEST NORTH DAKOTA

CITY           SKY/WX    TMP DP  RH WIND       PRES   REMARKS
BISMARCK       CLOUDY    25  20  81 N9        30.04S WCI  15
DICKINSON      CLOUDY    19  14  81 NW10      30.02R WCI   7
GARRISON         N/A     17  11  77 NW18      30.05R WCI   1
HETTINGER ARPT CLOUDY    21  16  81 NW15      30.02S WCI   8
$$

NDZ004>008-012>016-024-026-027-054-260800-
NORTHEAST NORTH DAKOTA

CITY           SKY/WX    TMP DP  RH WIND       PRES   REMARKS
GRAND FORKS    CLOUDY    25  19  78 N12       30.03R WCI  14
GRND FRKS AFB  CLOUDY    25  25 100 N8        30.04R WCI  16
DEVILS LAKE    CLOUDY    21  16  79 NW13      30.02S WCI   9
$$

NDZ022-023-025-028>030-036>039-047>053-260800-
SOUTHEAST NORTH DAKOTA

CITY           SKY/WX    TMP DP  RH WIND       PRES   REMARKS
FARGO          CLOUDY    26  21  81 N14       30.00S WCI  14
JAMESTOWN      CLOUDY    24  21  88 N8        29.99S WCI  15
$$



USA.gov is the U.S. government's official web portal to all federal, state and local government web resources and services.